LXFUN ELLX-ZZZZ

Flight info

Callsign LXFUN
Flight time N/A
Altitude 0
Route ELLX/06
Aircraft C152/M-SBY/C

Departure

Time 2026-04-29 19:18
Airport Luxembourg-Findel International Airport (ELLX)

Arrival

Time N/A
Airport ZZZZ
Time Latitude Longitude Altitude Speed Heading
2026-04-29 19:18 49.60871 6.23197 1956 ft 121 kts 217°
2026-04-29 19:18 49.60556 6.21977 1972 ft 126 kts 254°
2026-04-29 19:19 49.60344 6.20673 2018 ft 123 kts 255°
2026-04-29 19:19 49.60203 6.19813 1953 ft 127 kts 255°
2026-04-29 19:19 49.59924 6.18535 1951 ft 117 kts 246°
2026-04-29 19:19 49.59648 6.17412 1988 ft 110 kts 263°
2026-04-29 19:20 49.59887 6.16398 2029 ft 93 kts 336°
2026-04-29 19:20 49.60451 6.16140 1911 ft 90 kts 14°
2026-04-29 19:20 49.60979 6.16698 1716 ft 105 kts 59°
2026-04-29 19:20 49.61377 6.17735 1392 ft 106 kts 62°
2026-04-29 19:21 49.61705 6.18623 1207 ft 85 kts 60°
2026-04-29 19:21 49.61959 6.19305 1177 ft 62 kts 59°
2026-04-29 19:21 49.62201 6.19945 1279 ft 73 kts 60°
2026-04-29 19:21 49.62456 6.20603 1517 ft 69 kts 60°
2026-04-29 19:22 49.62707 6.21228 1725 ft 73 kts 61°
2026-04-29 19:22 49.62863 6.21941 1879 ft 72 kts 95°
2026-04-29 19:22 49.62549 6.22542 1970 ft 86 kts 140°
2026-04-29 19:22 49.61985 6.23003 1998 ft 96 kts 144°
2026-04-29 19:23 49.61335 6.23384 1975 ft 104 kts 149°
2026-04-29 19:23 49.60607 6.23101 1888 ft 125 kts 235°
2026-04-29 19:23 49.60384 6.21842 1903 ft 121 kts 259°
2026-04-29 19:23 49.60248 6.20587 1885 ft 120 kts 264°
2026-04-29 19:24 49.60188 6.19375 1921 ft 112 kts 275°
2026-04-29 19:24 49.60401 6.18238 1860 ft 100 kts 314°
2026-04-29 19:24 49.60854 6.17575 1721 ft 79 kts 356°
2026-04-29 19:24 49.61334 6.17798 1511 ft 78 kts 46°
2026-04-29 19:25 49.61665 6.18503 1311 ft 81 kts 60°
2026-04-29 19:25 49.61916 6.19165 1182 ft 59 kts 62°
2026-04-29 19:25 49.62072 6.19608 1192 ft 33 kts 60°
2026-04-29 19:25 49.62106 6.19699 1199 ft 17 kts 59°
2026-04-29 19:26 49.62239 6.20048 1220 ft 56 kts 60°
2026-04-29 19:26 49.62469 6.20675 1353 ft 69 kts 60°
2026-04-29 19:26 49.62710 6.21293 1627 ft 63 kts 60°
2026-04-29 19:26 49.62947 6.21889 1837 ft 66 kts 71°
2026-04-29 19:27 49.62815 6.22556 1998 ft 79 kts 130°
2026-04-29 19:27 49.62268 6.23003 2012 ft 92 kts 144°
2026-04-29 19:27 49.61663 6.23376 2100 ft 97 kts 147°
2026-04-29 19:27 49.60935 6.23457 1988 ft 125 kts 198°
2026-04-29 19:28 49.60496 6.22314 1936 ft 123 kts 256°
2026-04-29 19:28 49.60355 6.21053 1950 ft 119 kts 261°
2026-04-29 19:28 49.60184 6.19801 1886 ft 116 kts 248°
2026-04-29 19:28 49.59725 6.18906 1946 ft 102 kts 212°
2026-04-29 19:29 49.59107 6.18444 1903 ft 97 kts 177°
2026-04-29 19:29 49.58506 6.18590 1933 ft 81 kts 138°
2026-04-29 19:29 49.58221 6.19219 1909 ft 76 kts 85°
2026-04-29 19:29 49.58532 6.19813 1924 ft 78 kts 22°
2026-04-29 19:30 49.59061 6.19531 1935 ft 95 kts 317°
2026-04-29 19:30 49.59226 6.18464 1902 ft 106 kts 262°
2026-04-29 19:30 49.58790 6.17675 1974 ft 97 kts 187°
2026-04-29 19:30 49.58191 6.17836 1961 ft 84 kts 130°
2026-04-29 19:31 49.58151 6.18563 1985 ft 77 kts 52°
2026-04-29 19:31 49.58686 6.18857 1893 ft 92 kts 21°
2026-04-29 19:31 49.59319 6.18684 1914 ft 102 kts 322°
2026-04-29 19:31 49.59273 6.17704 1983 ft 103 kts 207°
2026-04-29 19:32 49.58735 6.17715 2028 ft 72 kts 114°
2026-04-29 19:32 49.58863 6.18466 1920 ft 83 kts 42°
2026-04-29 19:32 49.59436 6.18414 1897 ft 100 kts 336°
2026-04-29 19:32 49.59933 6.17741 1787 ft 86 kts 328°
2026-04-29 19:33 49.60327 6.17141 1661 ft 75 kts 334°
2026-04-29 19:33 49.60753 6.16830 1495 ft 58 kts 18°
2026-04-29 19:33 49.61118 6.17101 1330 ft 67 kts 53°
2026-04-29 19:33 49.61403 6.17832 1300 ft 80 kts 62°
2026-04-29 19:34 49.61642 6.18462 1218 ft 60 kts 60°
2026-04-29 19:34 49.61833 6.18969 1169 ft 48 kts 60°
2026-04-29 19:34 49.61980 6.19363 1182 ft 41 kts 59°
2026-04-29 19:34 49.62108 6.19636 1196 ft 15 kts 353°
2026-04-29 19:35 49.62241 6.19503 1194 ft 31 kts 331°
2026-04-29 19:35 49.62332 6.19421 1193 ft 0 kts 328°
2026-04-29 19:37 49.62366 6.19415 1194 ft 1 kts 64°
2026-04-29 19:37 49.62388 6.19479 1196 ft 5 kts 79°
2026-04-29 19:38 49.62388 6.19483 1196 ft 0 kts 107°